Tracking 29511 objects as of 15-Sep-2024
HD Live streaming from Space Station
objects crossing your sky now

ONEWEB-0069

Track ONEWEB-0069 now!
10-day predictions
ONEWEB-0069 is classified as:


NORAD ID: 45430
Int'l Code: 2020-020G
Perigee: 1,223.4 km
Apogee: 1,226.2 km
Inclination: 87.9 °
Period: 109.8 minutes
Semi major axis: 7595 km
RCS: Unknown
Launch date: March 21, 2020
Source: United Kingdom (UK)
Launch site: TYURATAM MISSILE AND SPACE COMPLEX (TTMTR)
Your satellite tracking list
Your tracking list is empty




NASA's NSSDC Master Catalog

Two Line Element Set (TLE):
1 45430U 20020G   24258.39962898  .00000164  00000-0  42764-3 0  9992
2 45430  87.8976 148.6727 0001815  76.4503 283.6827 13.11416710218684
Source of the keplerian elements: AFSPC